Time,TemperatureF,DewpointF,PressureIn,WindDirection,WindDirectionDegrees,WindSpeedMPH,WindSpeedGustMPH,Humidity,HourlyPrecipIn,Conditions,Clouds,dailyrainin,SoftwareType,DateUTC
2013-01-08 00:02:00,44.0,39.0,30.21,ENE,74,0.0,3.0,81,0.00,,,0.00,,2013-01-08 06:02:00,
2013-01-08 00:12:00,44.0,39.0,30.21,ENE,74,0.0,3.0,81,0.00,,,0.00,,2013-01-08 06:12:00,
2013-01-08 00:22:00,44.0,39.0,30.21,ENE,78,1.0,4.0,81,0.00,,,0.00,,2013-01-08 06:22:00,
2013-01-08 00:33:00,44.0,39.0,30.21,East,82,0.0,4.0,81,0.00,,,0.00,,2013-01-08 06:33:00,
2013-01-08 00:42:00,44.0,39.0,30.21,East,82,0.0,4.0,81,0.00,,,0.00,,2013-01-08 06:42:00,
2013-01-08 00:52:00,44.0,39.0,30.21,ENE,63,1.0,3.0,81,0.00,,,0.00,,2013-01-08 06:52:00,
2013-01-08 01:02:00,44.0,39.0,30.21,NE,50,2.0,4.0,81,0.00,,,0.00,,2013-01-08 07:02:00,
2013-01-08 01:12:00,44.0,39.0,30.21,NE,50,2.0,4.0,81,0.00,,,0.00,,2013-01-08 07:12:00,
2013-01-08 01:22:00,44.0,39.0,30.21,NE,50,2.0,4.0,81,0.00,,,0.00,,2013-01-08 07:22:00,
2013-01-08 01:32:00,44.0,39.0,30.20,ENE,72,1.0,7.0,81,0.00,,,0.00,,2013-01-08 07:32:00,
2013-01-08 01:42:00,44.0,39.0,30.20,ENE,72,1.0,7.0,81,0.00,,,0.00,,2013-01-08 07:42:00,
2013-01-08 01:52:00,44.0,39.0,30.19,SE,126,2.0,5.0,81,0.00,,,0.00,,2013-01-08 07:52:00,
2013-01-08 02:02:00,44.0,38.0,30.20,WNW,289,1.0,4.0,80,0.00,,,0.00,,2013-01-08 08:02:00,
2013-01-08 02:12:00,44.0,38.0,30.20,WNW,289,1.0,4.0,80,0.00,,,0.00,,2013-01-08 08:12:00,
2013-01-08 02:22:00,44.0,39.0,30.20,SE,126,1.0,-999.0,81,-99.99,,,-99.99,,2013-01-08 08:22:00,
2013-01-08 02:32:00,44.0,38.0,30.21,East,84,1.0,3.0,80,0.00,,,0.00,,2013-01-08 08:32:00,
2013-01-08 02:42:00,44.0,38.0,30.21,East,84,1.0,3.0,80,0.00,,,0.00,,2013-01-08 08:42:00,
2013-01-08 02:52:00,44.0,39.0,30.20,NE,43,1.0,4.0,81,0.00,,,0.00,,2013-01-08 08:52:00,
2013-01-08 03:02:00,44.0,38.0,30.19,ENE,74,2.0,5.0,80,0.00,,,0.00,,2013-01-08 09:02:00,
2013-01-08 03:12:00,44.0,38.0,30.19,ENE,74,2.0,5.0,80,0.00,,,0.00,,2013-01-08 09:12:00,
2013-01-08 03:22:00,44.0,38.0,30.19,ENE,76,1.0,5.0,80,0.00,,,0.00,,2013-01-08 09:22:00,
2013-01-08 03:33:00,45.0,39.0,30.19,ENE,60,2.0,5.0,80,0.00,,,0.00,,2013-01-08 09:33:00,
2013-01-08 03:42:00,45.0,39.0,30.19,ENE,60,2.0,5.0,80,0.00,,,0.00,,2013-01-08 09:42:00,
2013-01-08 03:52:00,45.0,39.0,30.19,ENE,63,2.0,5.0,79,0.00,,,0.00,,2013-01-08 09:52:00,
2013-01-08 04:02:00,45.0,39.0,30.20,East,79,1.0,6.0,79,0.00,,,0.00,,2013-01-08 10:02:00,
2013-01-08 04:12:00,45.0,39.0,30.20,East,79,1.0,6.0,79,0.00,,,0.00,,2013-01-08 10:12:00,
2013-01-08 04:22:00,45.0,39.0,30.19,ENE,71,2.0,8.0,78,0.00,,,0.00,,2013-01-08 10:22:00,
2013-01-08 04:33:00,44.0,38.0,30.19,ENE,69,3.0,6.0,79,0.00,,,0.00,,2013-01-08 10:33:00,
2013-01-08 04:42:00,44.0,38.0,30.19,ENE,69,3.0,6.0,79,0.00,,,0.00,,2013-01-08 10:42:00,
2013-01-08 04:52:00,44.0,38.0,30.19,ENE,65,2.0,5.0,79,0.00,,,0.00,,2013-01-08 10:52:00,
2013-01-08 05:02:00,44.0,38.0,30.19,ESE,121,1.0,5.0,80,0.00,,,0.00,,2013-01-08 11:02:00,
2013-01-08 05:12:00,44.0,38.0,30.19,ESE,121,1.0,5.0,80,0.00,,,0.00,,2013-01-08 11:12:00,
2013-01-08 05:22:00,44.0,38.0,30.20,ENE,73,3.0,5.0,80,0.00,,,0.00,,2013-01-08 11:22:00,
2013-01-08 05:33:00,44.0,38.0,30.20,ENE,77,3.0,6.0,80,0.00,,,0.00,,2013-01-08 11:33:00,
2013-01-08 05:42:00,44.0,38.0,30.20,ENE,77,3.0,6.0,80,0.00,,,0.00,,2013-01-08 11:42:00,
2013-01-08 05:53:00,44.0,39.0,30.21,East,84,2.0,5.0,81,0.00,,,0.00,,2013-01-08 11:53:00,
2013-01-08 06:03:00,44.0,39.0,30.21,NE,41,2.0,5.0,81,0.00,,,0.00,,2013-01-08 12:03:00,
2013-01-08 06:12:00,44.0,39.0,30.21,NE,41,2.0,5.0,81,0.00,,,0.00,,2013-01-08 12:12:00,
2013-01-08 06:22:00,44.0,39.0,30.21,ENE,77,2.0,4.0,81,0.00,,,0.00,,2013-01-08 12:22:00,
2013-01-08 06:33:00,45.0,39.0,30.22,ENE,72,3.0,4.0,80,0.00,,,0.00,,2013-01-08 12:33:00,
2013-01-08 06:43:00,45.0,39.0,30.22,ENE,72,3.0,4.0,80,0.00,,,0.00,,2013-01-08 12:43:00,
2013-01-08 06:53:00,45.0,39.0,30.23,ENE,61,2.0,7.0,80,0.00,,,0.00,,2013-01-08 12:53:00,
2013-01-08 07:03:00,46.0,40.0,30.23,ESE,108,4.0,8.0,79,0.00,,,0.00,,2013-01-08 13:03:00,
2013-01-08 07:12:00,46.0,40.0,30.23,ESE,108,4.0,8.0,79,0.00,,,0.00,,2013-01-08 13:12:00,
2013-01-08 07:22:00,46.0,40.0,30.24,ENE,65,4.0,8.0,79,0.00,,,0.00,,2013-01-08 13:22:00,
2013-01-08 07:33:00,46.0,40.0,30.24,East,85,2.0,8.0,79,0.00,,,0.00,,2013-01-08 13:33:00,
2013-01-08 07:43:00,46.0,40.0,30.24,East,85,2.0,8.0,79,0.00,,,0.00,,2013-01-08 13:43:00,
2013-01-08 07:52:00,47.0,41.0,30.24,East,94,4.0,10.0,78,0.00,,,0.00,,2013-01-08 13:52:00,
2013-01-08 08:03:00,47.0,41.0,30.24,East,89,5.0,10.0,78,0.00,,,0.00,,2013-01-08 14:03:00,
2013-01-08 08:13:00,47.0,41.0,30.24,East,89,5.0,10.0,78,0.00,,,0.00,,2013-01-08 14:13:00,
2013-01-08 08:23:00,48.0,41.0,30.25,NE,43,4.0,8.0,78,0.00,,,0.00,,2013-01-08 14:23:00,
2013-01-08 08:33:00,48.0,41.0,30.25,NNE,33,3.0,7.0,78,0.00,,,0.00,,2013-01-08 14:33:00,
2013-01-08 08:43:00,48.0,41.0,30.25,NNE,33,3.0,7.0,78,0.00,,,0.00,,2013-01-08 14:43:00,
2013-01-08 08:53:00,49.0,42.0,30.26,ENE,78,2.0,6.0,78,0.00,,,0.00,,2013-01-08 14:53:00,
2013-01-08 09:03:00,49.0,43.0,30.26,East,90,2.0,6.0,79,0.00,,,0.00,,2013-01-08 15:03:00,
2013-01-08 09:12:00,49.0,43.0,30.26,East,90,2.0,6.0,79,0.00,,,0.00,,2013-01-08 15:12:00,
2013-01-08 09:23:00,50.0,43.0,30.27,ENE,72,3.0,5.0,78,0.00,,,0.00,,2013-01-08 15:23:00,
2013-01-08 09:33:00,50.0,44.0,30.27,NE,44,2.0,6.0,79,0.00,,,0.00,,2013-01-08 15:33:00,
2013-01-08 09:43:00,50.0,44.0,30.27,NE,44,2.0,6.0,79,0.00,,,0.00,,2013-01-08 15:43:00,
2013-01-08 09:53:00,50.0,44.0,30.27,NE,44,2.0,6.0,79,0.00,,,0.00,,2013-01-08 15:53:00,
2013-01-08 10:03:00,53.0,46.0,30.25,East,101,3.0,7.0,77,0.00,,,0.00,,2013-01-08 16:03:00,
2013-01-08 10:13:00,53.0,46.0,30.25,East,101,3.0,7.0,77,0.00,,,0.00,,2013-01-08 16:13:00,
2013-01-08 10:23:00,55.0,47.0,30.25,ENE,77,3.0,8.0,74,0.00,,,0.00,,2013-01-08 16:23:00,
2013-01-08 10:34:00,56.0,47.0,30.25,East,82,1.0,8.0,73,0.00,,,0.00,,2013-01-08 16:34:00,
2013-01-08 10:43:00,56.0,47.0,30.25,East,82,1.0,8.0,73,0.00,,,0.00,,2013-01-08 16:43:00,
2013-01-08 10:52:00,55.0,47.0,30.25,SE,125,2.0,6.0,74,0.00,,,0.00,,2013-01-08 16:52:00,
2013-01-08 11:03:00,56.0,48.0,30.25,SE,131,2.0,4.0,74,0.00,,,0.00,,2013-01-08 17:03:00,
2013-01-08 11:13:00,56.0,48.0,30.25,SE,131,2.0,4.0,74,0.00,,,0.00,,2013-01-08 17:13:00,
2013-01-08 11:23:00,56.0,48.0,30.25,ENE,70,2.0,4.0,74,0.00,,,0.00,,2013-01-08 17:23:00,
2013-01-08 11:34:00,57.0,49.0,30.24,SE,125,2.0,4.0,74,0.00,,,0.00,,2013-01-08 17:34:00,
2013-01-08 11:43:00,57.0,49.0,30.24,SE,125,2.0,4.0,74,0.00,,,0.00,,2013-01-08 17:43:00,
2013-01-08 11:53:00,58.0,49.0,30.22,ESE,122,2.0,5.0,71,0.00,,,0.00,,2013-01-08 17:53:00,
2013-01-08 12:04:00,58.0,49.0,30.22,East,79,3.0,5.0,72,0.00,,,0.00,,2013-01-08 18:04:00,
2013-01-08 12:13:00,58.0,49.0,30.22,East,79,3.0,5.0,72,0.00,,,0.00,,2013-01-08 18:13:00,
2013-01-08 12:23:00,59.0,49.0,30.22,NE,50,2.0,4.0,70,0.00,,,0.00,,2013-01-08 18:23:00,
2013-01-08 12:33:00,60.0,51.0,30.22,ENE,72,2.0,4.0,71,0.00,,,0.00,,2013-01-08 18:33:00,
2013-01-08 12:43:00,60.0,51.0,30.22,ENE,72,2.0,4.0,71,0.00,,,0.00,,2013-01-08 18:43:00,
2013-01-08 12:53:00,60.0,51.0,30.22,ENE,65,0.0,2.0,72,0.00,,,0.00,,2013-01-08 18:53:00,
2013-01-08 13:03:00,61.0,52.0,30.21,NE,56,1.0,4.0,72,0.00,,,0.00,,2013-01-08 19:03:00,
2013-01-08 13:12:00,61.0,52.0,30.21,NE,56,1.0,4.0,72,0.00,,,0.00,,2013-01-08 19:12:00,
2013-01-08 13:23:00,61.0,52.0,30.20,ENE,65,3.0,5.0,72,0.00,,,0.00,,2013-01-08 19:23:00,
2013-01-08 13:33:00,61.0,53.0,30.20,ENE,77,0.0,3.0,74,0.00,,,0.00,,2013-01-08 19:33:00,
2013-01-08 13:43:00,61.0,53.0,30.20,ENE,77,0.0,3.0,74,0.00,,,0.00,,2013-01-08 19:43:00,
2013-01-08 13:53:00,62.0,53.0,30.19,ENE,69,1.0,3.0,73,0.00,,,0.00,,2013-01-08 19:53:00,
2013-01-08 14:03:00,63.0,53.0,30.18,NE,41,1.0,5.0,71,0.00,,,0.00,,2013-01-08 20:03:00,
2013-01-08 14:12:00,63.0,53.0,30.18,NE,41,1.0,5.0,71,0.00,,,0.00,,2013-01-08 20:12:00,
2013-01-08 14:23:00,63.0,53.0,30.18,ENE,63,2.0,7.0,70,0.00,,,0.00,,2013-01-08 20:23:00,
2013-01-08 14:33:00,63.0,53.0,30.17,NE,43,2.0,5.0,71,0.00,,,0.00,,2013-01-08 20:33:00,
2013-01-08 14:43:00,63.0,53.0,30.17,NE,43,2.0,5.0,71,0.00,,,0.00,,2013-01-08 20:43:00,
2013-01-08 14:53:00,63.0,54.0,30.18,East,92,1.0,5.0,73,0.00,,,0.00,,2013-01-08 20:53:00,
2013-01-08 15:03:00,63.0,54.0,30.17,ENE,67,2.0,4.0,72,0.00,,,0.00,,2013-01-08 21:03:00,
2013-01-08 15:13:00,63.0,54.0,30.17,ENE,67,2.0,4.0,72,0.00,,,0.00,,2013-01-08 21:13:00,
2013-01-08 15:23:00,63.0,54.0,30.17,East,82,2.0,5.0,72,0.00,,,0.00,,2013-01-08 21:23:00,
2013-01-08 15:33:00,63.0,55.0,30.17,East,79,1.0,3.0,74,0.00,,,0.00,,2013-01-08 21:33:00,
2013-01-08 15:43:00,63.0,55.0,30.17,East,79,1.0,3.0,74,0.00,,,0.00,,2013-01-08 21:43:00,
2013-01-08 15:53:00,63.0,55.0,30.17,ESE,123,1.0,3.0,75,0.00,,,0.00,,2013-01-08 21:53:00,
2013-01-08 16:04:00,63.0,55.0,30.18,ENE,68,0.0,2.0,75,0.00,,,0.00,,2013-01-08 22:04:00,
2013-01-08 16:12:00,63.0,55.0,30.18,ENE,68,0.0,2.0,75,0.00,,,0.00,,2013-01-08 22:12:00,
2013-01-08 16:23:00,62.0,55.0,30.18,ENE,64,0.0,2.0,78,0.00,,,0.00,,2013-01-08 22:23:00,
2013-01-08 16:33:00,62.0,55.0,30.19,ENE,75,0.0,1.0,78,0.00,,,0.00,,2013-01-08 22:33:00,
2013-01-08 16:43:00,62.0,55.0,30.19,ENE,75,0.0,1.0,78,0.00,,,0.00,,2013-01-08 22:43:00,
2013-01-08 16:52:00,62.0,55.0,30.19,ENE,75,0.0,0.0,79,0.00,,,0.00,,2013-01-08 22:52:00,
2013-01-08 17:03:00,61.0,55.0,30.18,ENE,75,0.0,0.0,81,0.00,,,0.00,,2013-01-08 23:03:00,
2013-01-08 17:13:00,61.0,55.0,30.18,ENE,75,0.0,0.0,81,0.00,,,0.00,,2013-01-08 23:13:00,
2013-01-08 17:23:00,60.0,55.0,30.19,ENE,75,0.0,0.0,83,0.00,,,0.00,,2013-01-08 23:23:00,
2013-01-08 17:33:00,60.0,55.0,30.18,ENE,75,0.0,0.0,84,0.00,,,0.00,,2013-01-08 23:33:00,
2013-01-08 17:43:00,60.0,55.0,30.18,ENE,75,0.0,0.0,84,0.00,,,0.00,,2013-01-08 23:43:00,
2013-01-08 17:52:00,60.0,55.0,30.19,ENE,75,0.0,0.0,85,0.00,,,0.00,,2013-01-08 23:52:00,
2013-01-08 18:03:00,60.0,55.0,30.19,ENE,75,0.0,1.0,85,0.00,,,0.00,,2013-01-09 00:03:00,
2013-01-08 18:13:00,60.0,55.0,30.19,ENE,75,0.0,1.0,85,0.00,,,0.00,,2013-01-09 00:13:00,
2013-01-08 18:22:00,60.0,55.0,30.18,East,84,0.0,1.0,84,0.00,,,0.00,,2013-01-09 00:22:00,
2013-01-08 18:33:00,60.0,54.0,30.18,ENE,67,0.0,1.0,82,0.00,,,0.00,,2013-01-09 00:33:00,
2013-01-08 18:43:00,60.0,54.0,30.18,ENE,67,0.0,1.0,82,0.00,,,0.00,,2013-01-09 00:43:00,
2013-01-08 18:52:00,60.0,54.0,30.18,SE,145,0.0,2.0,81,0.00,,,0.00,,2013-01-09 00:52:00,
2013-01-08 19:02:00,60.0,54.0,30.18,ENE,74,0.0,3.0,81,0.00,,,0.00,,2013-01-09 01:02:00,
2013-01-08 19:12:00,60.0,54.0,30.18,ENE,74,0.0,3.0,81,0.00,,,0.00,,2013-01-09 01:12:00,
2013-01-08 19:22:00,60.0,54.0,30.18,East,89,0.0,2.0,80,0.00,,,0.00,,2013-01-09 01:22:00,
2013-01-08 19:33:00,60.0,54.0,30.19,ENE,68,1.0,3.0,80,0.00,,,0.00,,2013-01-09 01:33:00,
2013-01-08 19:42:00,60.0,54.0,30.19,ENE,68,1.0,3.0,80,0.00,,,0.00,,2013-01-09 01:42:00,
2013-01-08 19:52:00,60.0,54.0,30.19,ENE,65,2.0,5.0,81,0.00,,,0.00,,2013-01-09 01:52:00,
2013-01-08 20:02:00,60.0,54.0,30.19,East,94,1.0,4.0,80,0.00,,,0.00,,2013-01-09 02:02:00,
2013-01-08 20:12:00,60.0,54.0,30.19,East,94,1.0,4.0,80,0.00,,,0.00,,2013-01-09 02:12:00,
2013-01-08 20:22:00,61.0,54.0,30.19,ESE,110,1.0,7.0,79,0.00,,,0.00,,2013-01-09 02:22:00,
2013-01-08 20:33:00,61.0,54.0,30.19,ESE,110,1.0,7.0,79,0.00,,,0.00,,2013-01-09 02:33:00,
2013-01-08 20:43:00,61.0,54.0,30.19,ESE,110,1.0,7.0,79,0.00,,,0.00,,2013-01-09 02:43:00,
2013-01-08 20:52:00,61.0,54.0,30.20,ENE,72,3.0,8.0,79,0.00,,,0.00,,2013-01-09 02:52:00,
2013-01-08 21:03:00,60.0,53.0,30.19,ESE,106,4.0,9.0,79,0.00,,,0.00,,2013-01-09 03:03:00,
2013-01-08 21:12:00,60.0,53.0,30.19,ESE,106,4.0,9.0,79,0.00,,,0.00,,2013-01-09 03:12:00,
2013-01-08 21:22:00,60.0,54.0,30.19,East,83,4.0,8.0,80,0.00,,,0.00,,2013-01-09 03:22:00,
2013-01-08 21:33:00,60.0,54.0,30.19,East,83,4.0,8.0,80,0.00,,,0.00,,2013-01-09 03:33:00,
2013-01-08 21:43:00,60.0,54.0,30.19,East,83,4.0,8.0,80,0.00,,,0.00,,2013-01-09 03:43:00,
2013-01-08 21:52:00,59.0,53.0,30.19,East,87,3.0,7.0,81,0.00,,,0.00,,2013-01-09 03:52:00,
2013-01-08 22:02:00,59.0,53.0,30.20,SE,129,3.0,9.0,81,0.00,,,0.00,,2013-01-09 04:02:00,
2013-01-08 22:12:00,59.0,53.0,30.20,SE,129,3.0,9.0,81,0.00,,,0.00,,2013-01-09 04:12:00,
2013-01-08 22:22:00,59.0,53.0,30.20,NE,56,3.0,7.0,81,0.00,,,0.00,,2013-01-09 04:22:00,
2013-01-08 22:33:00,58.0,53.0,30.20,ENE,71,3.0,8.0,82,0.00,,,0.00,,2013-01-09 04:33:00,
2013-01-08 22:42:00,58.0,53.0,30.20,ENE,71,3.0,8.0,82,0.00,,,0.00,,2013-01-09 04:42:00,
2013-01-08 22:52:00,58.0,53.0,30.20,ENE,72,2.0,8.0,83,0.00,,,0.00,,2013-01-09 04:52:00,
2013-01-08 23:03:00,58.0,53.0,30.20,ENE,75,1.0,7.0,83,0.00,,,0.00,,2013-01-09 05:03:00,
2013-01-08 23:12:00,58.0,53.0,30.20,ENE,75,1.0,7.0,83,0.00,,,0.00,,2013-01-09 05:12:00,
2013-01-08 23:22:00,57.0,52.0,30.21,ENE,65,1.0,5.0,84,0.00,,,0.00,,2013-01-09 05:22:00,
2013-01-08 23:33:00,57.0,53.0,30.21,East,89,1.0,6.0,85,0.00,,,0.00,,2013-01-09 05:33:00,
2013-01-08 23:42:00,57.0,53.0,30.21,East,89,1.0,6.0,85,0.00,,,0.00,,2013-01-09 05:42:00,
2013-01-08 23:52:00,58.0,54.0,30.20,NE,56,2.0,4.0,85,0.00,,,0.00,,2013-01-09 05:52:00,